User: anonymous   Login
Location: Oshawa
(43.9000°N, 78.8670°W)
Time: 07:08:38
(UTC-04:00)
Language:

Cosmos 2333 Rocket - Orbit

View from above orbital plane
View from above orbital plane
View from above satellite
View from above satellite

Ground track
Ground track

The orbit data is extracted from the following two-line orbital elements,

1 24298U 96051B   17149.95188337 +.00000008 +00000-0 +30644-4 0  9991
2 24298 070.8504 100.5279 0018687 215.1326 144.8563 14.12497600068981
Epoch (UTC): 29 May 2017 22:50:42
Eccentricity: 0.0018687
inclination: 70.8504°
perigee height: 837 km
apogee height: 864 km
right ascension of ascending node: 100.5279°
argument of perigee: 215.1326°
revolutions per day: 14.12497600
mean anomaly at epoch: 144.8563°
orbit number at epoch: 6898

The dashed part of the orbit path shows where the satellite is in the earth's shadow,  

DLR